Theta_e
316 315 317 317 318 318 315 313 316 317 319 324 331 327 319 320 328 328 324 322 326 330 328 324 319 313 311 310 308 307 306 305 306 306 305 305 305 305 305 305 305 305 305 306 306 307 311 316 318 319 320 321 321 321 321 321 321 322 322 322 321 320 321 321 321 320 320 321 320 319 319 319 318 318 317 317 316 315 314 313 314 314 313 314 313 312 311
320 317 318 318 317 317 315 311 311 313 316 320 323 323 319 319 322 321 321 324 327 326 322 316 311 309 308 306 305 305 304 304 305 305 304 305 305 304 304 304 304 304 304 305 305 305 307 309 312 313 313 313 315 316 318 319 320 320 321 321 319 319 320 319 319 319 320 320 319 318 318 318 317 317 316 316 316 315 314 314 313 314 316 317 316 314 313
321 320 320 319 318 318 318 315 310 310 315 319 319 319 318 318 321 322 324 327 325 319 313 309 307 307 306 305 305 304 303 303 303 304 304 304 304 304 304 304 304 304 304 304 304 304 304 305 305 305 305 306 307 308 310 312 315 318 319 318 318 318 318 319 319 319 319 319 318 317 317 317 317 317 317 316 315 315 315 315 315 316 319 319 317 314 314
321 319 319 321 320 319 320 317 312 310 313 316 317 316 316 319 323 324 325 326 322 314 309 307 307 306 305 305 304 303 303 303 303 304 304 304 304 304 304 304 304 303 303 303 303 303 303 303 303 303 303 304 304 304 305 305 308 312 313 312 312 313 314 316 317 316 317 317 316 316 317 317 318 318 319 318 318 319 318 318 318 319 319 319 317 315 314
322 318 318 321 320 320 321 316 311 311 312 313 315 316 315 317 320 322 324 324 318 311 309 308 307 306 305 305 304 303 303 303 303 303 303 303 304 304 303 304 303 303 303 303 303 302 302 302 302 302 302 302 302 302 302 302 304 305 305 306 306 307 308 310 311 311 312 312 311 311 313 315 317 318 318 318 318 318 319 320 320 319 319 319 319 318 317
322 317 318 322 322 322 319 313 310 310 310 312 315 316 314 314 316 319 321 319 313 310 309 308 307 306 305 305 304 304 303 303 303 303 303 303 303 303 303 303 302 303 303 302 302 302 301 301 301 301 301 301 301 301 301 301 301 301 301 302 302 302 302 303 304 305 306 306 305 305 306 308 311 311 310 309 309 311 313 314 315 316 316 317 318 319 319
320 317 319 323 323 319 314 311 309 308 309 310 312 313 312 312 314 317 317 315 310 308 307 305 305 304 303 302 303 303 303 303 303 303 303 303 302 302 302 302 302 302 302 302 302 302 301 301 301 301 301 300 300 300 300 300 300 300 300 300 300 300 300 300 301 302 303 303 302 301 302 303 304 304 304 303 303 304 305 306 307 308 309 310 312 314 315
317 319 321 321 319 314 311 311 309 307 308 309 311 315 313 310 312 314 312 310 307 305 305 304 303 302 301 300 300 300 301 301 302 302 302 301 301 301 301 301 302 302 302 302 302 302 301 301 300 300 300 300 300 300 300 300 300 300 300 299 299 299 299 299 300 301 302 302 302 302 301 301 301 301 301 301 301 301 302 303 303 303 304 305 305 306 308
316 319 319 317 317 315 312 311 309 307 308 308 309 314 313 310 311 311 309 308 307 305 304 303 302 302 303 302 300 299 299 299 300 300 300 299 300 300 300 300 301 301 302 302 302 302 301 300 301 300 300 300 300 300 299 299 299 299 299 299 299 299 299 299 299 300 301 302 302 302 303 303 301 300 300 299 299 300 300 301 301 301 301 301 302 303 304
316 320 319 317 319 317 312 310 307 306 308 307 307 311 313 311 310 309 309 308 307 305 305 305 305 306 306 304 302 300 300 300 300 301 299 298 299 299 299 300 300 301 301 301 301 301 301 300 301 301 301 300 300 299 299 299 299 299 299 299 299 299 299 299 299 299 299 300 300 300 302 303 301 301 302 301 300 299 299 299 299 299 299 300 300 300 301
315 318 318 317 317 315 310 308 306 305 307 306 306 312 316 311 309 309 308 306 306 306 306 305 307 309 307 304 301 300 301 301 301 301 301 299 299 300 300 300 301 301 301 301 300 300 300 300 300 300 300 300 299 299 299 299 298 298 298 298 298 298 298 298 298 299 298 298 299 299 299 300 299 300 301 301 300 300 299 298 299 298 298 299 299 299 299
313 313 313 313 313 312 308 306 305 304 304 306 311 318 317 310 308 308 307 306 306 306 306 306 306 306 305 302 300 299 299 299 299 300 300 300 300 300 300 300 300 300 300 300 300 299 299 299 299 299 299 299 299 299 298 298 298 298 298 297 297 297 297 298 298 298 298 298 298 298 298 298 298 298 298 299 299 299 298 298 298 298 298 298 298 298 298
311 312 312 311 310 309 306 304 302 302 304 310 316 317 312 307 307 307 306 306 306 305 305 306 303 301 301 300 299 298 297 298 299 298 298 299 299 299 300 300 300 300 300 300 299 299 299 299 299 299 299 298 298 298 298 298 297 297 297 297 297 297 297 297 297 297 297 297 297 297 297 297 298 298 298 298 298 298 297 298 298 298 298 298 298 298 298
310 310 311 311 310 307 303 302 302 303 309 314 313 308 304 304 306 306 304 304 304 303 303 302 300 298 297 297 297 297 296 298 298 297 297 298 299 299 299 299 299 299 299 299 299 298 299 299 299 299 299 298 298 298 297 297 297 297 297 296 296 296 296 296 297 297 297 297 297 297 297 297 297 297 297 297 297 297 297 297 297 298 298 298 298 298 298
308 310 311 312 311 307 302 303 305 307 309 310 307 304 303 304 305 304 302 302 303 302 300 299 298 297 297 297 297 297 296 297 297 296 297 298 298 299 299 299 299 299 298 298 298 298 298 299 299 299 298 298 297 297 297 297 297 296 296 296 296 296 296 296 296 296 296 296 296 296 296 296 296 296 296 296 296 296 296 296 297 297 297 297 297 297 297
308 311 310 308 307 304 302 303 305 305 304 304 304 304 303 303 303 303 302 302 302 301 299 298 298 297 297 297 297 297 298 297 296 296 297 297 298 299 298 298 299 299 298 298 298 298 298 298 298 298 298 298 297 297 297 297 296 296 296 297 297 296 296 296 295 295 295 295 295 295 295 295 295 295 295 295 295 295 295 296 296 296 296 296 296 296 296
305 308 307 305 304 302 301 302 302 301 301 301 302 302 302 302 302 301 301 301 300 300 299 298 298 298 298 297 297 298 299 297 295 295 296 297 298 298 298 298 299 298 298 298 298 298 298 298 298 298 298 298 297 297 297 296 296 296 296 297 297 296 296 296 295 295 295 295 295 295 295 295 295 295 295 295 295 295 295 295 295 295 295 295 295 295 295
303 305 304 303 303 302 301 302 301 301 301 300 301 301 302 302 302 301 300 300 300 300 299 299 299 298 298 297 298 299 298 296 295 296 296 296 297 298 297 298 298 298 298 298 298 298 298 298 298 298 298 298 297 297 297 297 297 297 297 297 296 296 296 295 295 295 295 296 296 296 296 296 296 295 295 295 295 295 294 294 295 295 295 295 295 295 295
304 306 304 302 303 302 301 302 301 301 301 300 300 301 301 301 302 302 302 301 301 301 300 299 299 298 297 298 299 298 297 296 295 295 295 296 297 298 298 298 298 298 298 297 297 297 297 298 298 298 298 298 297 297 297 297 297 297 297 297 296 296 295 295 295 295 296 296 296 296 296 296 295 294 294 293 293 293 293 293 293 293 294 294 294 294 294
304 304 303 302 302 301 301 302 302 301 302 301 300 300 300 300 301 301 301 301 301 301 301 300 299 299 299 300 300 299 298 296 295 295 295 296 297 298 298 298 298 298 298 297 297 297 297 297 298 298 298 298 297 297 297 297 297 297 297 296 296 295 295 295 295 296 296 296 296 296 295 295 294 293 293 292 292 292 292 293 293 293 293 293 294 294 294
303 302 302 302 303 301 301 302 302 302 302 301 301 301 300 300 301 300 300 300 300 300 301 300 300 301 300 299 299 299 297 295 295 295 295 296 297 298 298 298 298 298 298 297 297 297 297 297 297 297 298 298 297 297 297 297 297 297 297 296 296 296 296 296 296 296 296 296 296 295 294 294 293 293 292 292 292 292 292 292 292 293 293 293 293 293 293
306 306 305 304 304 304 301 301 302 302 302 301 301 301 301 301 301 301 301 300 298 298 299 299 300 301 299 297 296 296 296 295 295 296 296 297 297 297 298 298 298 298 298 297 297 297 297 297 297 297 297 298 298 297 297 297 297 297 297 296 296 296 296 296 296 296 296 296 295 294 294 293 293 292 292 292 292 292 292 292 292 292 293 293 293 293 293
306 307 307 304 305 305 301 300 302 302 301 302 302 301 301 301 300 299 300 300 299 298 298 297 298 298 296 295 295 294 294 295 295 296 297 297 297 297 298 298 298 298 297 297 297 297 297 297 297 297 297 298 298 298 297 297 297 297 297 296 296 296 296 296 296 296 296 295 294 294 293 293 293 293 292 292 292 292 292 293 293 293 293 293 294 294 293
303 305 307 304 304 303 301 302 303 301 298 300 302 302 300 298 297 297 297 298 299 299 297 295 296 296 295 294 294 294 294 295 295 296 296 297 297 297 297 297 297 297 297 297 297 297 297 296 297 297 297 297 297 297 297 297 297 297 297 296 296 296 296 296 296 296 296 295 294 293 293 293 293 293 293 293 293 293 293 293 293 293 293 293 294 294 294
304 305 304 303 303 304 302 301 301 298 295 296 299 299 298 296 296 296 296 295 295 296 296 295 294 295 295 295 295 295 295 295 296 296 296 296 297 297 297 297 297 297 297 297 297 296 296 296 296 297 297 297 298 298 297 297 297 297 297 297 296 296 296 296 296 296 295 294 294 293 293 293 293 294 294 294 294 294 294 294 294 294 294 294 294 294 294
301 301 301 300 301 302 301 300 300 298 296 295 297 296 295 296 296 296 296 296 295 295 295 295 295 295 295 296 295 295 295 295 296 296 296 296 297 297 297 297 297 296 296 296 295 295 295 296 296 296 297 297 297 297 297 297 297 297 297 297 297 296 296 296 296 295 295 294 294 294 294 294 294 294 294 294 294 294 294 294 294 295 294 294 294 294 295
299 300 301 301 299 299 300 302 302 298 295 295 295 294 294 296 296 295 295 295 295 295 295 295 295 295 295 294 295 295 295 295 295 295 296 296 296 296 296 296 296 295 295 295 294 293 294 295 296 296 297 297 297 297 297 297 297 297 297 297 297 296 296 296 296 295 294 294 294 294 294 294 294 294 294 295 294 294 294 294 294 294 294 294 294 295 295
299 299 300 302 302 300 300 299 298 296 294 294 294 293 293 294 295 295 297 296 294 294 295 294 294 295 294 293 294 295 294 295 295 295 295 295 295 295 296 295 295 295 295 294 293 293 294 295 296 296 297 297 297 297 297 297 297 297 297 297 297 297 296 296 296 295 294 294 294 294 295 295 295 294 295 295 295 294 294 294 294 294 294 294 295 295 295
301 300 299 299 298 298 298 297 296 296 295 294 292 292 293 295 298 300 299 295 292 293 293 293 293 293 293 293 294 295 295 295 295 295 295 295 295 295 295 295 295 295 294 294 293 293 293 294 295 296 296 297 297 297 297 297 297 297 297 297 297 296 296 296 295 295 294 294 294 295 295 295 294 295 295 295 295 294 294 294 294 294 294 294 294 294 294
302 302 301 298 295 295 298 299 299 299 297 293 292 292 292 293 300 304 299 293 291 292 293 292 293 293 293 294 295 295 295 295 295 295 295 295 295 295 295 295 295 294 294 294 293 293 293 293 294 295 296 296 297 297 296 297 297 297 297 297 296 296 296 296 295 294 294 294 294 295 295 294 294 295 295 295 295 294 294 294 294 294 294 294 293 293 294
301 302 304 303 300 299 301 302 300 299 297 293 293 295 295 295 300 305 299 292 290 292 292 292 293 293 294 295 295 295 295 295 295 295 294 294 294 294 294 294 294 294 294 294 293 293 292 293 293 294 295 296 297 297 296 296 297 297 297 297 296 296 296 295 295 294 294 294 294 295 294 294 294 295 295 295 294 294 294 293 293 293 294 293 293 293 293
301 300 300 302 302 302 302 302 301 300 299 296 295 298 298 297 300 303 299 293 291 292 293 293 293 294 295 295 294 294 294 294 294 294 294 294 294 294 294 294 294 293 293 293 293 292 292 292 293 294 295 296 296 297 296 296 296 297 297 297 296 296 296 295 294 294 294 294 294 294 294 294 294 295 295 294 294 294 294 293 293 293 293 293 293 293 293
302 300 299 301 301 300 300 300 300 300 300 298 296 294 294 293 294 295 294 292 292 292 293 294 295 295 295 295 294 294 294 293 293 293 293 292 291 291 291 291 292 292 292 292 292 292 292 292 292 293 294 296 296 296 296 296 296 296 297 296 296 296 295 294 294 294 294 294 294 294 293 293 294 294 295 294 294 293 293 293 293 293 293 293 293 293 293
300 301 300 299 300 299 299 299 301 302 301 297 294 292 293 293 293 292 292 292 292 293 293 295 295 295 295 294 294 294 293 292 292 292 290 289 288 289 289 290 290 291 291 291 292 292 292 292 292 293 294 296 296 297 297 296 296 296 296 296 296 296 295 294 294 294 294 294 293 293 293 293 293 294 295 294 293 293 293 293 293 293 293 293 293 293 293
296 296 296 294 295 295 296 297 300 302 301 298 296 294 294 294 293 292 292 292 293 294 295 295 295 295 294 294 294 293 293 292 291 290 288 287 289 290 291 291 292 292 292 292 292 293 293 293 293 293 295 296 297 297 297 296 296 296 296 296 296 296 295 294 293 293 293 293 293 293 293 292 293 294 294 293 292 292 292 293 293 293 293 293 293 293 293
294 294 294 295 295 295 294 295 296 296 296 296 296 295 295 294 294 293 293 294 294 295 295 294 294 294 294 294 293 293 293 291 290 289 288 289 290 292 292 292 292 292 292 292 292 292 293 294 294 294 295 296 297 297 296 296 296 296 296 296 296 295 294 294 293 293 293 293 292 292 292 292 293 294 294 293 292 292 292 292 293 292 292 292 292 293 293
295 294 295 295 296 295 294 295 295 295 295 295 295 295 295 295 295 295 295 295 295 295 294 294 294 294 294 294 294 293 292 290 289 289 290 291 292 292 291 291 292 291 291 291 291 292 294 295 295 295 296 296 296 296 296 296 296 296 296 296 296 295 294 294 293 293 292 292 292 292 292 292 293 293 293 292 292 292 292 292 292 292 292 292 292 292 292
295 295 295 295 295 295 295 295 295 295 295 295 295 295 296 295 295 295 295 295 295 295 294 294 294 293 294 294 293 292 291 290 289 290 291 292 292 292 292 292 292 292 291 290 291 292 294 294 294 295 295 295 295 295 295 296 296 295 295 296 296 295 295 294 293 292 292 292 292 292 292 292 293 293 293 292 292 292 292 292 292 292 292 292 292 292 292
295 295 295 295 295 295 295 295 296 296 296 296 296 296 296 295 295 296 295 295 295 294 294 293 293 293 293 293 293 292 292 291 291 291 291 292 292 292 292 292 292 291 291 291 291 292 294 294 294 294 294 294 295 296 295 295 295 295 295 296 296 295 295 294 293 292 292 292 291 292 292 293 293 293 293 293 292 292 292 292 292 292 292 291 291 291 291
295 295 295 295 295 295 295 296 296 296 296 296 296 296 296 296 295 295 295 295 295 294 294 293 293 292 292 293 293 292 292 292 292 292 291 291 291 291 291 292 291 290 291 292 293 293 294 294 294 293 293 294 295 295 294 294 294 294 295 295 295 295 295 293 293 292 292 291 291 292 292 293 293 293 293 292 292 292 292 292 292 292 292 291 291 291 291
295 296 296 295 295 296 296 296 296 296 296 296 296 296 296 296 296 295 295 295 295 294 294 294 293 293 293 293 293 293 293 292 292 291 291 291 291 291 291 291 291 290 291 292 293 293 293 293 292 292 292 294 294 293 292 292 293 293 294 294 294 295 295 293 292 292 291 291 291 292 293 293 293 293 293 292 292 292 292 292 292 292 292 292 291 291 291
296 296 295 296 296 296 296 296 296 296 296 296 296 296 296 296 296 296 296 296 295 295 295 294 294 294 293 293 293 293 293 292 292 291 291 291 291 291 291 291 292 292 292 293 293 292 292 292 292 292 292 293 293 293 292 292 293 293 294 293 294 295 295 294 292 292 291 291 291 292 293 293 293 293 292 292 292 292 292 292 292 292 292 292 292 291 291
296 296 295 295 296 296 296 296 296 296 296 296 296 296 296 296 296 296 296 296 296 296 295 295 295 294 293 292 292 292 293 293 292 292 292 291 291 291 291 291 292 292 292 293 293 292 292 292 293 293 292 291 292 292 292 291 292 293 294 293 293 294 295 294 292 292 291 291 291 292 292 293 293 293 292 292 291 292 292 292 292 292 292 292 292 291 291
296 296 296 296 295 295 296 296 295 296 296 296 297 296 296 296 296 296 296 296 296 296 296 296 295 295 294 293 292 293 293 293 293 292 292 291 291 290 291 291 291 291 291 292 292 293 292 292 293 293 291 290 291 291 291 291 292 293 293 293 293 294 294 294 292 292 291 291 291 291 292 292 292 292 292 292 292 292 292 292 292 292 292 291 291 291 291
296 296 296 296 296 296 296 296 295 296 296 296 296 296 296 296 296 296 296 296 296 296 296 296 296 295 295 294 293 294 294 294 293 292 292 291 290 290 291 291 290 290 291 291 292 292 293 293 293 292 291 291 291 292 292 291 291 292 293 293 293 294 294 294 293 292 292 291 291 291 292 292 292 291 291 291 291 291 292 292 292 291 291 291 291 291 290
296 297 297 296 296 297 297 296 296 296 295 295 296 297 297 296 296 296 296 296 296 296 296 296 296 296 295 295 294 294 294 294 294 293 292 291 291 290 291 291 290 290 290 290 291 291 292 292 292 292 291 290 291 292 292 291 291 292 293 294 293 294 294 294 293 292 292 291 291 291 291 291 291 291 291 291 291 291 291 292 292 291 291 290 290 290 290
297 297 297 297 297 297 297 297 297 296 296 296 296 296 296 296 296 296 296 296 296 296 296 296 296 296 296 295 295 294 294 294 294 294 293 292 291 291 291 291 290 290 290 290 291 291 291 292 292 291 290 290 291 291 291 290 291 292 293 294 294 294 294 294 293 292 292 291 291 291 291 290 290 290 290 290 291 291 291 291 291 291 290 290 289 289 289
297 297 297 298 298 298 298 297 297 296 296 296 296 296 296 296 296 296 296 296 296 296 296 296 296 296 296 296 296 295 295 294 294 293 293 292 291 291 291 291 290 290 290 290 290 291 291 291 290 289 290 290 291 290 289 290 292 293 293 294 294 294 295 294 294 293 292 291 291 291 290 290 290 290 290 290 290 290 290 291 291 291 290 290 290 289 289
297 297 297 297 297 297 297 297 296 296 296 296 296 296 296 296 296 296 296 296 295 296 296 296 296 296 296 296 296 296 295 295 294 294 293 293 292 291 291 291 290 290 290 290 289 290 290 289 289 289 290 290 289 289 289 291 293 293 292 293 293 293 294 294 294 293 292 292 291 291 291 290 290 290 290 290 290 290 289 290 290 290 290 290 289 289 289
297 297 297 297 297 297 297 296 296 296 296 296 295 295 295 295 295 295 296 295 295 295 296 296 296 296 296 296 296 296 295 295 295 294 294 293 292 291 291 291 290 290 290 290 289 289 289 288 288 288 288 287 287 288 290 292 293 292 291 291 291 291 292 293 293 293 292 292 291 291 291 291 291 290 290 290 290 290 289 289 290 290 290 290 289 289 288
297 297 297 297 297 297 296 296 296 296 296 296 295 295 295 295 295 295 295 295 295 295 295 296 295 295 295 295 295 295 295 295 295 294 294 293 292 291 291 291 290 290 290 290 289 287 287 287 287 287 287 287 287 289 291 292 291 291 291 290 289 289 290 291 292 293 293 292 292 291 291 291 291 291 290 290 290 290 289 289 289 289 289 289 289 289 288
296 296 296 295 295 295 295 295 295 296 296 296 296 295 295 295 295 295 295 295 295 295 295 295 295 295 295 295 295 295 295 295 294 294 293 292 291 291 291 291 290 290 290 290 288 287 286 287 287 287 288 289 290 290 291 291 291 290 290 289 288 288 288 289 291 292 292 292 292 291 291 291 290 290 290 290 290 290 289 289 288 288 289 289 288 288 288
Wind_Speed
2 2 3 4 3 2 3 4 6 7 8 6 5 3 3 5 5 4 4 4 6 5 7 8 7 7 8 7 8 8 8 8 8 9 10 10 10 11 11 11 11 11 10 9 10 13 15 16 15 14 15 17 18 18 19 20 20 21 24 25 24 22 21 21 19 15 12 10 10 9 8 8 9 10 10 9 8 8 9 9 7 5 4 4 5 5 4
1 4 5 5 6 3 2 5 7 8 8 5 5 3 1 3 3 3 4 7 5 4 7 9 8 7 8 8 8 8 9 9 9 11 10 9 10 11 11 11 11 11 11 11 13 15 17 18 18 18 17 18 19 18 17 18 18 19 20 20 19 18 17 17 17 16 13 11 10 8 6 7 9 9 9 8 8 8 8 8 7 6 4 4 4 5 5
2 6 6 6 5 3 2 6 10 11 9 7 5 4 3 2 3 4 6 8 6 5 8 10 8 7 9 9 9 9 8 8 10 11 9 9 11 12 11 11 11 11 11 12 15 18 19 20 21 22 23 25 26 26 24 23 23 22 21 22 21 19 18 17 16 16 14 12 10 8 6 6 7 6 6 7 7 7 7 7 7 6 5 3 3 4 5
2 4 5 7 7 3 3 8 13 13 9 6 4 3 3 2 3 6 6 5 4 5 8 10 8 8 10 10 9 8 7 8 11 11 9 10 10 10 11 11 11 12 11 12 15 19 20 23 24 24 27 29 30 31 29 26 27 29 28 28 27 24 22 21 20 19 18 17 15 14 13 12 11 10 9 8 7 7 6 6 5 4 3 2 3 3 2
2 3 3 4 6 4 3 5 9 9 6 5 5 3 5 6 2 4 3 3 6 7 10 12 9 8 9 9 7 7 6 8 11 10 9 9 9 9 10 11 11 11 12 14 18 21 22 25 24 25 30 32 31 32 33 30 31 33 32 32 31 29 26 25 24 23 22 22 22 20 19 18 16 15 14 13 11 10 10 9 8 7 7 6 6 5 3
0 3 3 3 2 2 1 1 4 6 5 6 5 3 5 9 5 0 2 6 9 8 9 12 11 8 9 9 8 7 6 7 9 8 7 6 5 7 8 9 9 11 14 18 21 23 24 26 26 26 30 32 32 34 36 36 35 34 34 34 33 32 31 28 27 27 27 27 27 25 23 21 19 19 18 17 16 14 13 11 10 11 10 9 8 7 6
1 2 3 3 1 2 1 1 4 5 4 4 4 1 6 10 8 4 6 9 10 9 9 10 11 11 11 10 10 9 8 7 6 6 6 4 4 5 6 6 8 12 16 19 20 22 23 25 27 29 29 30 33 34 36 38 36 34 35 36 33 32 33 31 29 28 28 28 28 27 26 24 23 22 20 19 18 16 14 14 14 14 13 12 11 10 9
1 1 3 2 2 2 1 1 5 6 4 5 4 2 6 10 8 5 8 9 10 11 10 9 9 10 11 10 10 10 9 8 7 5 4 4 4 5 6 7 9 13 17 19 20 22 24 25 28 29 28 29 31 32 34 37 36 33 35 36 33 31 32 31 29 26 24 24 24 22 22 23 24 24 22 20 18 16 14 14 14 14 14 14 14 12 11
2 2 1 1 1 1 2 2 5 5 3 4 4 2 4 7 6 4 7 10 11 11 11 10 10 11 11 10 7 8 8 8 7 6 5 4 3 6 9 11 13 15 18 20 22 24 26 27 27 28 29 30 31 31 31 34 34 32 33 33 31 30 30 30 29 26 23 22 21 18 17 18 20 20 20 20 19 17 15 13 13 14 14 14 14 13 12
2 3 2 1 1 1 2 3 4 4 3 4 3 2 2 5 6 5 7 10 10 9 9 7 5 8 10 8 3 5 6 6 6 6 6 5 5 9 12 14 16 17 18 20 23 26 27 26 25 28 30 31 32 31 29 30 31 31 30 28 27 25 25 25 25 24 22 21 20 18 16 15 15 13 12 13 15 16 16 15 14 13 13 12 12 12 12
2 3 2 2 1 0 1 5 7 6 4 3 2 1 2 4 6 5 8 10 9 7 6 3 3 2 7 5 0 3 4 6 6 6 6 6 8 11 14 16 17 18 19 21 24 27 27 24 23 26 29 31 32 29 27 28 30 29 28 27 26 24 22 22 21 20 20 19 18 18 16 15 14 11 9 8 9 11 13 14 13 13 12 11 11 11 11
2 3 2 1 1 0 3 6 9 8 4 2 2 1 2 4 5 4 8 10 8 5 4 4 5 4 5 5 2 0 3 5 5 4 5 5 8 12 15 18 19 21 23 25 25 26 26 23 23 25 29 31 30 27 26 29 29 27 26 25 24 23 21 21 21 20 19 18 17 16 14 13 12 12 10 9 8 8 9 11 11 12 11 11 11 10 10
3 3 2 1 1 1 4 8 10 8 4 1 1 1 2 4 4 4 7 8 7 5 5 6 5 4 4 6 5 4 4 3 3 2 2 4 9 13 16 19 22 23 25 25 26 25 25 25 25 27 30 31 28 26 27 28 26 24 23 22 21 21 20 20 20 19 18 17 16 15 13 11 11 11 11 10 9 8 7 7 9 10 11 11 11 10 10
2 2 2 1 1 1 6 11 10 5 1 0 1 2 3 3 1 6 8 6 6 8 8 8 7 5 6 7 6 3 2 3 3 0 4 9 12 15 18 20 23 24 24 24 24 24 24 26 26 27 30 30 27 26 27 26 22 21 21 20 19 19 19 19 18 17 16 15 14 14 13 11 11 11 11 9 9 8 8 8 9 10 12 12 12 12 12
2 2 2 2 0 2 8 12 7 2 2 0 2 2 2 2 2 6 7 6 8 10 10 8 8 8 7 6 5 3 1 2 2 2 6 10 13 15 18 21 23 25 24 23 23 23 24 25 26 27 28 27 25 25 24 21 19 19 19 19 19 19 19 18 17 16 15 14 14 13 13 12 12 11 11 10 10 10 10 11 12 12 13 13 14 14 14
1 3 2 1 1 4 7 6 3 2 3 2 2 0 2 4 4 5 6 6 8 11 12 10 9 9 7 5 4 3 2 2 3 5 8 11 13 15 18 20 24 26 25 23 22 22 23 24 24 25 26 25 23 22 20 18 18 19 19 19 19 19 20 19 17 16 14 14 14 14 14 14 13 13 13 12 12 12 12 12 12 13 13 13 14 15 16
3 3 1 0 2 4 4 2 2 2 2 2 2 3 4 4 4 4 6 8 9 10 12 11 9 7 7 6 5 4 3 4 5 7 9 11 14 16 18 20 23 25 25 24 22 21 20 21 22 22 23 23 22 20 17 16 16 17 17 18 18 18 18 18 18 16 16 15 15 14 14 14 14 14 14 13 13 13 13 12 13 13 13 13 14 15 16
3 4 3 3 3 4 4 4 3 3 4 4 4 6 7 6 6 6 7 9 10 10 10 10 7 6 7 7 5 3 3 4 6 8 10 12 15 18 19 21 23 25 25 24 22 20 18 18 19 19 20 21 20 18 16 15 15 16 16 17 17 16 15 16 16 16 15 15 14 13 13 13 13 12 12 12 12 12 12 12 12 13 13 14 14 15 16
3 2 3 4 3 3 4 5 5 6 6 5 5 7 7 6 8 9 9 10 10 9 10 9 8 7 7 6 3 3 4 4 6 8 11 13 15 17 19 20 22 23 23 22 21 20 18 16 17 17 17 18 18 16 15 15 14 15 16 16 15 15 14 14 14 13 12 12 11 11 11 11 11 11 12 12 12 12 12 12 12 13 13 14 14 14 15
2 1 3 5 3 2 4 5 4 5 6 6 7 7 7 8 8 9 10 11 9 7 8 8 8 8 7 6 5 4 3 4 6 8 10 13 15 17 18 19 20 21 21 20 19 19 18 16 16 15 14 14 14 13 13 13 12 13 14 13 13 13 12 11 11 10 10 10 10 10 10 10 11 12 14 14 13 12 11 11 12 13 13 13 14 14 15
3 1 2 3 4 5 6 6 5 4 4 6 8 7 8 9 9 9 10 10 9 9 8 8 8 7 5 6 7 6 4 5 7 9 11 14 15 16 17 18 18 19 19 19 18 17 16 16 15 14 13 11 10 10 11 10 10 12 12 11 11 10 10 10 10 9 9 9 9 9 9 9 11 13 14 14 13 12 11 9 9 11 12 12 12 13 14
1 2 2 1 3 3 2 3 4 5 3 5 8 7 7 8 8 8 7 7 7 8 9 9 9 6 4 5 7 6 6 7 8 10 12 13 14 15 16 16 16 17 16 16 15 14 13 12 12 12 11 9 8 8 8 8 8 10 11 10 10 10 10 10 10 10 10 10 10 10 10 11 12 14 14 13 13 13 13 12 10 8 8 9 10 11 12
3 6 5 4 4 3 2 2 3 4 3 4 7 6 5 6 6 7 8 6 5 4 5 8 10 8 6 8 9 8 6 7 8 9 10 11 11 11 11 12 13 13 12 11 11 11 10 8 8 8 8 8 7 7 6 6 7 9 9 9 10 10 10 10 10 11 11 11 11 11 12 13 14 15 16 16 15 14 15 15 13 9 8 10 12 12 12
1 3 4 4 3 3 2 2 1 3 2 5 6 5 4 4 5 6 7 6 6 5 4 5 10 12 12 12 11 10 8 7 7 8 8 8 8 7 7 8 9 9 9 7 7 7 5 5 5 5 6 6 6 6 5 5 5 8 9 9 9 10 11 11 12 12 13 13 13 13 15 16 16 16 17 19 19 18 17 17 14 12 12 14 15 14 13
2 2 3 4 4 3 3 2 1 2 1 5 5 3 3 5 6 7 7 6 7 9 8 6 8 12 14 13 12 11 10 9 8 8 7 7 7 6 6 6 5 4 4 3 3 3 2 3 3 4 4 4 4 5 5 4 5 8 9 9 10 11 11 12 13 14 14 13 12 14 16 17 17 17 18 19 20 22 22 20 18 16 16 17 17 16 15
4 5 5 5 4 3 3 3 2 2 1 3 5 4 4 6 6 7 8 8 8 10 12 11 11 12 13 13 13 12 12 11 10 9 8 8 8 8 7 5 4 2 1 0 2 3 5 5 4 3 3 3 3 4 4 4 6 8 9 10 11 11 11 12 13 14 13 11 10 12 14 15 16 17 18 17 18 20 22 23 23 22 20 19 18 17 15
5 6 7 6 4 2 0 2 3 3 2 3 6 7 6 7 8 7 7 7 7 9 10 12 13 12 11 11 12 11 10 10 10 9 8 8 7 6 6 5 4 3 3 2 2 4 5 5 3 1 3 4 4 4 4 3 5 7 8 10 11 10 9 10 12 12 11 9 10 12 13 14 15 16 16 16 16 17 17 19 21 22 22 20 19 16 14
2 1 3 4 4 4 4 4 6 6 4 3 6 9 9 8 8 7 7 6 6 7 8 9 11 12 11 10 9 8 7 8 9 9 8 8 7 7 6 6 5 4 4 2 2 3 4 4 4 2 2 4 3 3 2 2 4 5 7 9 11 9 8 9 11 11 9 9 10 12 13 14 14 15 15 15 15 16 16 15 16 18 20 19 18 16 15
4 5 3 2 4 4 4 4 5 6 5 4 6 8 7 6 5 3 3 5 6 7 8 8 8 8 9 9 8 7 8 9 9 9 9 9 9 8 8 8 7 6 5 4 3 4 4 5 5 5 1 2 2 1 1 2 3 4 6 8 10 9 8 9 10 10 9 9 10 11 13 14 14 14 15 15 14 14 14 14 15 16 18 18 19 19 19
4 4 4 4 4 5 6 4 3 3 4 4 5 4 3 4 4 3 5 5 5 7 8 9 8 6 7 9 10 10 10 10 10 10 11 11 11 10 9 9 9 8 8 7 5 5 5 5 7 6 3 1 1 1 2 2 3 4 6 8 9 8 7 9 9 8 8 9 10 10 12 14 15 15 14 14 13 13 13 14 15 17 17 17 18 20 21
4 5 5 5 5 6 4 1 1 2 2 2 4 3 2 3 4 4 5 5 5 7 8 9 8 8 9 12 12 11 11 11 11 11 12 13 12 11 10 10 10 10 10 8 7 7 7 7 7 7 4 1 1 3 3 3 3 3 5 7 8 7 8 9 8 7 8 9 9 10 12 15 16 14 13 12 12 12 12 13 15 17 17 17 17 18 20
6 7 6 5 5 5 4 3 2 2 0 1 3 3 4 4 4 5 6 6 7 9 10 10 11 11 11 11 10 10 10 11 11 11 12 12 11 11 10 10 9 9 10 10 10 10 10 10 9 7 4 2 3 4 5 5 4 4 5 7 7 7 8 9 7 6 7 8 8 9 12 15 15 13 10 10 11 11 12 13 14 15 16 16 16 17 18
6 4 2 2 3 3 1 2 0 2 2 4 3 4 6 6 6 6 7 8 8 10 11 12 13 12 11 10 9 9 9 8 9 10 10 11 11 11 11 11 11 11 11 11 11 11 12 12 11 9 6 4 5 6 6 5 5 4 5 6 6 6 8 8 7 7 7 7 8 9 11 13 14 12 8 9 11 11 12 13 13 12 13 14 15 16 16
5 4 4 4 4 3 3 4 3 2 3 4 3 4 5 6 8 8 7 8 9 10 12 14 13 12 11 9 9 8 7 7 9 10 10 10 9 9 8 9 10 11 11 11 11 12 13 13 12 10 7 5 6 7 6 6 5 4 4 5 5 6 8 9 8 8 7 7 8 9 10 12 13 10 7 8 10 11 12 12 11 11 12 13 14 14 15
2 3 4 4 5 5 6 6 5 4 3 3 4 4 3 4 5 5 7 10 11 12 13 13 12 11 10 9 9 9 8 9 11 11 10 7 6 5 5 6 7 10 11 12 12 12 12 11 10 9 8 6 6 7 6 6 5 4 3 4 4 5 8 9 8 8 8 7 7 9 10 12 11 7 5 7 9 10 11 11 10 10 12 14 14 15 14
1 3 3 3 3 4 6 7 6 6 5 4 4 4 2 2 3 4 6 10 12 11 11 11 10 10 10 10 10 10 9 10 10 9 7 6 5 5 6 7 8 10 12 12 10 8 7 7 8 8 7 6 6 6 6 6 4 3 3 3 3 5 8 9 9 8 7 7 8 9 10 10 8 3 3 5 8 9 10 10 10 11 12 12 13 14 14
2 1 1 2 3 4 6 6 5 5 4 3 4 4 4 4 4 4 5 8 10 11 11 11 10 10 11 11 11 10 9 9 9 7 7 6 6 6 8 8 9 10 11 10 8 4 2 5 6 6 6 5 5 5 5 4 3 3 3 3 3 5 8 9 9 8 6 6 8 10 10 7 3 1 2 4 7 8 9 8 9 11 11 11 11 12 12
3 3 2 1 2 4 5 5 5 5 4 4 5 6 7 6 5 5 5 6 8 10 11 12 11 11 11 10 10 10 9 8 8 7 7 7 7 8 9 10 10 10 9 6 4 2 1 3 4 3 3 3 4 5 4 3 3 3 3 3 4 5 7 9 9 8 6 7 8 8 8 5 2 2 1 4 7 8 8 7 9 11 10 9 10 11 12
2 1 1 0 2 3 4 4 4 5 5 6 7 8 8 7 6 6 6 6 6 7 9 11 11 10 9 9 10 11 10 7 7 7 8 7 8 9 11 11 11 10 7 3 1 2 3 3 2 2 2 2 3 3 4 3 3 3 4 5 5 4 6 9 9 7 6 6 6 6 6 4 2 1 2 5 7 7 8 8 9 10 9 9 10 10 12
3 2 2 2 3 4 5 5 6 6 6 6 7 7 6 6 5 6 6 6 5 6 8 10 11 12 11 12 12 12 9 7 7 7 7 7 8 10 11 10 8 5 4 4 5 5 5 4 3 2 2 2 2 3 3 4 5 5 5 6 6 4 5 8 8 6 5 5 4 4 4 3 2 1 3 5 7 7 7 8 7 7 7 8 9 10 11
4 4 5 6 5 6 7 8 9 9 8 8 8 7 5 5 5 5 6 5 4 5 7 9 11 13 13 13 13 12 10 9 8 8 8 8 9 10 10 8 5 2 3 5 5 6 7 6 4 3 2 3 3 3 4 5 6 6 6 6 7 5 4 6 7 5 4 3 2 2 2 2 1 1 3 6 6 5 5 5 5 5 5 6 7 8 9
5 4 5 7 9 10 10 11 11 12 12 12 10 8 8 7 6 5 4 4 5 6 7 8 10 12 13 13 13 13 12 11 10 10 10 10 10 10 10 8 4 2 3 5 6 8 9 7 5 4 4 4 5 5 5 6 6 7 7 7 7 6 4 5 6 5 4 3 1 0 1 1 0 2 3 4 4 4 4 4 4 4 4 6 6 7 8
7 6 7 8 10 11 11 11 10 11 12 12 10 8 8 9 9 9 8 7 6 7 8 8 9 11 13 13 13 13 14 14 13 12 12 12 12 12 13 11 8 6 6 7 6 8 10 9 8 6 6 6 7 7 6 6 7 8 8 8 8 7 5 3 4 4 4 3 1 0 0 0 1 2 2 3 3 4 5 5 4 3 4 5 6 5 6
10 9 9 10 10 10 10 9 9 10 11 11 10 9 7 6 7 8 9 8 7 8 8 9 9 10 11 12 13 14 15 15 13 11 11 11 12 11 11 10 9 8 8 9 8 7 8 9 8 7 7 8 8 8 6 6 7 8 9 9 8 8 7 4 3 3 3 2 1 1 1 1 2 2 2 2 3 5 6 6 4 3 4 4 4 4 5
10 9 9 10 10 10 10 10 10 11 11 11 11 10 8 6 6 5 5 6 7 8 8 8 9 9 10 11 12 13 14 15 14 12 10 10 10 9 8 7 7 7 7 9 11 10 9 9 9 8 8 8 8 8 7 7 8 9 9 9 8 9 9 5 3 2 1 2 1 1 1 2 2 3 3 3 3 5 6 5 4 3 3 3 3 4 5
8 8 8 8 8 9 9 10 10 10 10 9 10 10 9 6 5 5 5 6 7 8 7 8 9 9 9 10 11 12 13 14 15 15 13 12 12 11 10 9 9 8 7 8 10 12 13 12 10 9 8 8 9 9 9 9 9 9 9 7 7 10 10 7 5 3 1 1 2 2 2 2 2 2 3 3 4 6 6 4 2 2 2 2 3 4 4
8 8 7 6 6 7 8 9 10 9 8 7 9 10 9 6 4 6 7 7 8 8 7 7 7 6 7 8 11 12 13 14 14 13 12 10 10 12 12 11 11 9 8 8 8 8 10 11 11 9 9 9 9 9 10 10 9 8 7 6 7 10 11 9 7 5 4 2 2 3 3 3 2 2 3 4 5 5 5 3 1 2 1 1 2 3 3
8 8 8 7 7 7 8 8 8 9 8 8 10 11 9 6 5 6 7 8 8 8 6 4 3 3 4 7 9 10 11 11 11 10 8 6 6 7 9 10 10 8 7 7 7 5 5 7 8 9 9 10 10 9 9 8 7 6 5 5 6 9 11 11 9 8 6 5 4 4 4 3 3 3 3 4 4 4 4 4 1 1 2 1 1 2 2
8 9 10 9 8 6 6 7 7 8 8 8 8 8 6 6 7 7 8 8 7 4 1 1 1 2 4 6 7 8 9 10 11 11 10 8 7 7 7 7 7 6 5 5 6 5 5 6 7 8 9 10 10 9 7 6 5 4 3 3 5 8 10 12 12 10 9 7 6 5 5 4 4 4 4 5 4 4 5 5 3 0 2 2 2 1 1
7 8 9 8 6 5 5 7 8 8 7 6 5 4 4 6 7 6 6 6 5 2 1 1 1 3 3 4 5 6 7 8 9 10 11 11 10 7 6 5 4 5 5 5 6 6 6 7 7 8 9 9 9 8 7 6 5 4 3 4 5 7 9 11 13 12 11 9 8 7 6 6 6 6 6 6 6 5 4 4 3 2 1 2 2 1 0
6 6 5 5 4 5 6 7 7 7 6 5 4 4 4 4 4 4 4 4 3 2 2 1 2 4 5 5 5 5 6 6 6 7 8 9 8 7 5 4 4 4 5 6 6 5 5 6 6 7 7 6 6 6 7 7 6 5 4 5 6 7 8 10 11 12 12 11 10 9 8 7 7 7 7 8 8 7 5 4 4 4 4 4 4 3 2
5 5 4 4 5 6 6 6 6 6 5 3 3 3 3 2 1 3 5 6 5 5 4 3 4 3 4 6 5 5 5 6 6 6 6 7 8 8 6 5 4 4 5 5 5 5 4 5 4 4 4 5 5 5 6 7 6 4 5 6 7 6 7 8 9 10 11 12 11 10 9 9 9 9 8 8 9 8 7 6 6 6 6 5 5 5 4
Wind_Direction
225 309 334 6 33 75 83 39 7 351 346 10 78 134 186 144 142 216 227 141 136 151 133 119 114 107 98 88 82 79 72 68 67 66 65 64 66 65 58 49 45 48 55 59 54 58 69 75 80 89 97 106 116 126 138 148 155 158 162 167 166 164 163 163 164 164 164 172 173 171 170 169 178 189 191 191 194 196 194 196 205 212 213 231 238 228 219
9 11 8 34 54 65 52 32 26 10 356 14 55 62 128 126 141 178 135 112 97 93 105 102 98 103 100 90 84 80 74 74 74 69 64 62 64 65 62 56 53 50 49 56 61 62 64 67 72 76 76 79 84 91 106 118 126 141 151 151 147 145 140 140 149 157 159 163 168 174 181 177 179 184 186 189 190 192 199 206 213 222 236 250 243 232 230
358 9 8 10 30 74 73 23 18 13 4 11 32 27 7 63 102 110 109 102 82 74 97 99 99 103 100 94 87 81 78 81 84 78 71 68 67 65 62 57 56 55 53 57 62 63 63 63 67 70 69 69 70 70 74 84 97 113 120 115 114 115 111 114 124 131 131 132 139 144 142 145 150 154 169 181 184 187 196 202 209 222 238 241 213 214 231
268 352 10 354 353 23 53 24 11 2 360 359 347 342 333 326 118 115 111 107 107 112 107 99 97 98 96 92 86 84 86 90 91 89 84 80 76 71 70 67 63 60 56 54 57 60 63 65 67 72 75 73 71 70 71 74 85 95 98 95 96 95 96 102 105 108 111 111 112 113 112 113 114 113 124 135 138 145 150 151 164 177 169 147 150 173 214
252 327 17 7 357 2 5 9 4 349 336 331 325 330 340 338 42 124 148 134 128 134 121 106 98 87 83 81 74 77 87 87 86 84 78 79 80 80 81 77 73 71 65 61 60 59 62 66 68 74 80 80 77 77 77 75 78 84 85 84 86 85 85 90 92 94 99 97 93 94 96 98 101 102 103 102 100 101 103 110 121 123 117 114 112 118 127
308 316 12 49 25 356 287 306 357 340 322 341 353 8 1 349 351 107 152 122 117 121 119 113 108 89 75 74 67 60 65 76 82 74 59 55 66 76 79 75 72 73 71 69 67 65 66 70 73 77 80 83 84 83 83 79 76 76 77 77 77 77 77 78 81 85 89 87 82 80 83 88 92 91 86 82 81 83 88 93 95 96 96 97 95 93 93
97 338 35 80 192 298 284 296 359 344 319 341 343 357 24 9 359 30 83 103 106 101 100 104 106 98 85 74 61 51 48 51 61 62 43 17 26 56 69 73 74 75 74 72 71 71 71 74 77 78 78 81 83 82 83 82 76 72 73 72 69 71 72 70 70 74 79 79 75 72 72 75 77 76 72 69 70 71 75 77 75 77 80 80 80 79 77
93 49 46 112 196 291 318 5 9 1 353 358 342 328 27 15 359 36 86 99 98 99 101 99 102 105 94 74 52 41 43 43 41 46 34 5 15 54 69 77 79 79 81 81 79 78 79 79 79 80 81 82 82 80 80 81 78 74 72 70 66 66 68 67 65 65 67 70 67 63 62 61 61 60 56 54 53 52 59 66 65 65 67 66 66 67 68
128 114 75 129 173 359 27 23 3 350 326 333 332 312 8 13 10 52 101 107 103 108 114 113 116 112 95 77 44 19 29 42 40 38 34 19 42 77 84 86 87 87 89 89 87 86 84 83 83 85 86 84 82 79 77 78 78 75 72 70 67 65 66 67 65 61 61 63 60 56 55 52 48 49 47 44 40 36 39 47 51 52 52 52 53 52 53
94 102 92 55 24 22 21 329 316 313 290 288 284 264 334 12 24 50 98 108 106 109 110 110 127 116 93 80 33 353 9 35 41 36 36 44 73 90 92 92 90 88 88 89 89 87 85 84 87 90 90 88 85 81 78 78 78 75 73 71 68 65 64 64 63 60 59 60 58 55 55 50 43 39 35 32 30 28 27 30 36 40 41 41 41 39 38
54 85 106 78 62 182 295 308 311 323 317 277 238 205 355 9 19 54 93 98 93 96 95 36 337 101 107 106 234 315 357 29 35 22 22 43 68 84 89 90 90 89 89 88 87 86 85 86 89 92 91 89 87 85 84 83 80 77 76 73 69 65 63 63 62 61 59 60 60 59 60 59 53 48 39 24 13 10 15 20 24 27 29 31 30 28 25
53 68 86 52 43 285 301 313 314 317 305 216 154 69 6 356 3 55 95 97 87 78 86 56 21 43 115 130 146 12 34 47 39 4 358 33 64 79 84 87 88 87 86 85 83 83 85 89 92 92 88 85 84 85 84 82 80 80 80 77 73 69 66 64 64 63 62 62 63 64 65 64 59 56 49 36 18 1 359 0 2 9 17 24 25 23 17
51 62 86 47 327 270 310 317 311 306 292 173 78 15 304 323 354 71 88 93 93 81 88 93 68 42 80 95 80 52 37 31 14 353 23 73 85 89 88 87 86 85 84 85 85 86 90 92 91 89 85 82 80 80 78 77 78 79 78 75 73 69 66 64 63 62 62 62 62 63 63 60 57 54 46 39 32 22 7 357 355 360 6 10 11 10 5
40 84 103 24 282 262 332 326 313 304 322 68 327 313 293 299 45 93 82 79 96 92 86 97 102 93 88 91 89 72 348 314 311 335 113 103 97 94 91 88 87 87 87 89 90 91 93 93 90 87 84 82 80 78 77 78 78 77 73 69 68 66 64 63 61 59 57 56 56 55 52 47 47 48 44 37 31 25 16 8 5 4 2 359 356 352 350
43 63 57 29 201 321 339 335 330 3 43 323 257 304 345 358 77 92 85 88 106 105 96 95 103 105 101 105 119 136 241 310 341 75 106 103 98 95 91 90 92 92 91 91 93 96 96 94 91 87 85 86 85 82 83 83 80 75 70 67 65 64 64 63 60 58 55 51 48 46 42 40 39 39 39 36 29 24 17 10 7 5 1 356 351 347 344
57 65 46 33 314 316 333 346 4 357 334 287 230 301 35 38 46 73 86 93 105 113 115 112 113 116 117 119 125 124 111 81 62 72 89 95 96 95 94 96 99 99 98 97 97 98 98 96 92 88 87 89 90 89 89 87 80 74 70 66 63 63 62 59 56 54 54 50 48 45 42 39 36 34 31 28 24 22 17 12 9 6 2 358 353 348 344
82 100 104 22 319 313 329 9 32 8 10 26 66 89 79 54 36 58 89 96 98 106 112 112 112 113 111 115 126 128 111 89 72 69 77 88 94 95 95 100 103 104 104 103 101 100 100 99 95 91 89 90 91 92 91 85 79 75 72 68 67 67 65 60 56 54 55 54 50 45 38 32 27 24 21 16 13 10 5 1 360 357 355 352 349 346 342
66 65 45 20 357 343 360 23 34 50 60 55 69 86 84 73 65 65 79 93 96 98 102 103 99 98 106 114 127 124 99 87 88 88 87 90 97 99 100 103 107 107 106 105 103 101 102 103 100 95 90 89 90 90 86 79 74 70 67 67 69 70 67 62 58 56 55 52 45 37 31 25 20 16 11 5 0 355 350 348 346 343 342 341 340 338 336
62 46 357 344 338 334 356 26 47 55 58 56 68 83 88 89 88 85 84 90 94 97 104 109 111 115 120 120 106 83 82 90 96 96 91 90 95 103 107 110 112 112 110 107 105 103 103 105 105 102 96 91 90 88 81 75 69 64 61 63 67 68 65 61 59 56 51 46 39 32 26 20 15 10 4 358 352 346 345 343 340 338 337 336 335 333 330
77 155 288 310 334 3 9 26 47 56 65 70 72 81 92 91 88 91 95 98 100 104 110 117 122 128 134 134 122 109 105 114 113 105 100 101 105 110 115 117 118 117 115 112 109 107 106 107 107 107 106 101 96 91 83 75 69 66 64 67 73 73 69 65 60 52 45 40 34 29 23 17 12 6 2 359 356 353 352 348 342 339 336 331 329 328 326
49 16 302 332 20 36 26 27 32 29 57 84 87 86 94 97 95 94 94 99 112 124 129 131 131 131 140 142 136 137 142 136 127 115 108 109 113 117 121 123 123 123 121 117 113 110 109 107 103 102 108 113 113 105 94 81 70 69 70 73 79 81 75 68 60 51 45 38 30 26 22 16 11 6 2 2 2 1 4 4 354 343 334 327 326 324 320
65 246 231 157 90 80 26 15 20 4 11 87 98 95 97 103 107 107 98 91 97 114 133 143 137 127 133 141 137 137 141 136 128 118 112 109 110 115 120 122 123 124 122 119 113 109 106 103 97 90 93 107 121 119 106 86 67 63 66 71 75 75 69 62 55 47 40 35 30 27 22 16 10 4 1 3 5 6 10 13 11 5 352 342 341 337 328
215 233 208 161 124 136 197 258 346 350 4 79 97 103 109 116 124 128 123 114 102 103 135 151 146 139 145 150 143 133 135 143 137 125 115 109 108 113 119 122 123 123 121 117 112 106 99 94 89 81 78 90 109 117 110 91 63 53 56 62 65 64 59 51 44 37 31 28 28 27 22 17 12 6 3 5 8 11 12 9 10 20 22 10 5 358 345
191 231 191 160 123 113 154 190 305 336 39 95 97 96 105 119 133 135 131 138 148 147 143 154 155 152 152 154 150 141 141 149 141 125 115 113 116 123 127 127 126 125 122 115 107 99 88 73 68 69 67 76 97 108 107 94 63 47 46 48 49 49 44 35 30 26 21 21 25 25 19 15 13 9 5 2 1 3 5 6 8 12 11 7 5 1 352
130 138 155 146 129 121 130 130 63 319 136 119 109 100 116 130 139 139 134 140 154 152 146 153 162 160 157 158 155 149 148 153 150 145 145 146 146 149 150 146 137 126 114 102 80 58 24 4 22 42 49 60 86 104 101 83 56 40 35 33 31 30 26 22 19 16 14 17 24 21 13 8 5 3 1 358 355 353 354 357 0 2 3 4 2 357 355
121 112 99 82 77 88 96 87 53 330 296 117 108 107 128 137 138 135 136 148 162 163 159 162 167 168 167 166 162 159 159 162 164 167 169 168 169 171 173 173 174 173 177 228 357 348 333 326 334 1 33 50 79 103 99 74 47 34 27 24 20 16 14 13 10 9 12 17 18 13 6 2 357 354 355 356 355 352 350 350 351 353 357 2 3 1 1
120 119 103 79 53 23 336 184 187 205 200 124 114 111 115 125 126 117 116 137 163 173 171 169 170 172 176 174 168 165 168 171 174 182 189 193 201 207 205 204 208 210 213 231 306 326 324 318 315 351 59 65 80 104 104 67 36 27 22 17 12 9 8 5 3 5 9 10 5 360 357 355 352 350 352 355 355 355 354 351 348 349 352 360 8 12 11
64 27 84 114 159 208 232 214 179 155 129 112 123 124 122 120 119 115 118 138 163 176 178 173 171 174 177 175 170 170 175 182 189 200 212 226 239 238 226 224 227 223 219 232 288 310 311 304 291 291 59 73 85 104 94 33 18 16 12 8 7 6 3 358 358 1 2 360 356 354 354 355 354 352 354 357 357 358 360 359 355 352 351 357 6 12 12
344 332 7 81 150 153 132 132 136 118 94 94 120 127 127 121 112 122 163 174 171 173 176 177 179 181 178 175 178 188 196 203 214 226 236 248 257 255 249 248 248 243 238 241 270 297 300 289 277 275 303 68 94 127 304 336 354 2 2 2 3 5 0 354 355 357 356 352 351 352 355 359 359 359 1 3 3 5 8 7 3 358 354 355 360 4 9
346 357 32 36 46 83 109 138 141 84 69 94 111 108 110 131 146 193 221 205 181 178 183 184 184 183 184 189 200 211 217 224 235 245 253 263 268 268 264 259 254 253 253 253 266 289 295 285 271 264 271 21 111 222 257 299 334 355 359 359 2 3 356 351 351 353 351 352 353 354 357 0 3 5 7 7 9 15 18 14 7 0 358 359 2 2 4
38 40 57 46 44 67 76 10 10 32 23 79 105 97 81 116 148 204 227 215 196 190 188 187 187 190 200 209 215 223 232 241 251 261 269 275 276 274 270 262 256 257 259 260 269 283 289 284 270 257 253 295 284 252 260 289 319 345 354 356 1 360 351 347 349 349 349 353 356 357 357 1 5 7 8 10 15 18 18 13 7 3 1 3 6 5 3
71 51 52 41 39 56 44 8 34 72 244 145 135 178 204 178 177 209 213 205 202 196 188 187 193 201 211 220 227 235 244 252 260 268 274 277 278 277 276 271 265 262 263 266 272 278 281 281 272 258 246 262 277 267 268 284 305 328 344 352 357 353 345 345 346 344 347 351 355 355 356 0 4 8 12 16 17 14 8 4 3 2 2 3 4 6 6
96 77 63 53 59 62 21 285 182 141 192 198 199 233 234 220 223 233 221 205 199 197 194 196 201 209 221 232 239 246 251 256 261 267 274 283 286 284 280 277 276 273 271 272 273 275 277 278 274 261 245 246 262 264 268 286 301 310 327 342 349 345 342 345 344 340 341 344 345 348 352 356 1 9 21 23 17 10 5 4 3 3 4 3 4 8 13
143 168 210 212 191 176 198 213 213 222 237 245 263 271 251 240 246 249 229 206 198 199 203 206 210 219 230 237 240 240 240 247 261 275 290 302 302 292 281 277 280 281 280 279 279 278 279 279 272 256 236 233 248 254 264 286 295 296 314 333 336 338 344 348 345 339 337 337 339 342 346 351 357 9 27 27 18 14 12 10 9 6 2 2 6 13 17
201 212 235 236 230 218 198 189 197 210 213 241 274 280 273 259 253 237 213 206 208 210 212 212 218 227 232 231 230 231 236 253 273 289 305 315 309 293 278 276 284 287 287 286 285 281 277 270 256 237 223 223 234 244 263 282 282 280 306 319 318 335 349 353 350 344 339 336 338 341 341 343 349 5 35 28 18 20 22 19 12 3 360 3 9 14 15
245 219 216 218 233 229 209 198 201 203 200 221 261 280 299 274 236 221 218 219 219 219 217 216 222 228 228 226 229 235 247 268 285 300 312 311 299 286 277 276 284 290 292 296 299 291 268 241 223 215 211 212 221 243 268 275 263 264 291 296 304 338 351 352 352 351 344 336 340 343 341 338 338 1 53 32 18 25 33 27 8 358 0 6 11 14 14
37 23 263 229 216 213 212 209 203 201 210 248 277 283 283 270 249 242 243 239 233 231 228 225 226 229 231 234 237 242 255 275 289 301 306 300 292 287 285 285 288 289 291 301 320 331 256 210 202 199 201 208 230 261 270 254 237 259 283 276 292 337 351 350 350 353 348 340 344 348 346 343 341 109 79 30 20 30 41 32 7 357 1 10 15 17 16
39 35 25 323 214 201 203 204 197 201 224 261 275 275 279 282 278 268 259 254 248 242 239 235 233 234 236 237 237 243 256 273 287 295 294 289 286 287 288 289 288 285 286 300 336 29 125 172 177 183 204 232 255 260 243 214 222 264 275 268 283 326 347 348 350 353 351 347 353 360 360 5 54 131 70 25 26 33 40 31 9 360 4 15 23 25 23
4 27 39 308 200 191 191 195 208 227 245 259 269 276 284 286 278 261 256 262 264 254 245 235 228 230 234 232 233 243 255 267 279 288 290 288 286 286 290 294 291 282 274 269 245 183 172 170 182 207 230 241 237 220 211 225 271 283 272 266 275 306 339 346 349 355 353 352 4 14 14 23 76 120 36 33 34 33 38 35 18 7 12 25 32 32 31
294 273 249 229 211 208 213 223 234 242 248 258 272 285 295 293 275 251 246 254 261 256 246 233 224 225 230 229 231 242 254 261 271 282 289 290 286 285 292 307 312 286 239 216 209 210 209 211 224 244 232 198 197 213 243 270 279 273 265 265 268 283 329 344 349 355 355 355 7 20 27 41 67 60 38 41 39 42 52 49 25 8 19 35 40 40 39
272 263 256 254 249 246 250 255 258 259 265 273 277 279 286 293 281 255 248 257 261 251 243 235 231 235 239 238 239 245 254 261 269 275 277 281 283 281 287 305 328 311 234 222 215 219 225 227 227 237 235 217 221 251 283 284 268 255 258 266 262 262 305 338 347 355 358 356 1 30 44 47 55 65 53 43 37 49 66 53 20 12 34 47 46 46 46
283 281 267 266 264 260 259 263 267 272 278 281 276 267 263 269 270 260 260 277 275 257 248 244 244 247 250 249 248 251 255 261 268 271 272 276 278 274 277 289 303 289 268 260 240 229 230 231 230 238 249 246 246 259 282 285 262 247 258 272 262 249 271 323 340 351 1 357 343 38 39 9 43 92 70 43 27 41 57 44 25 34 55 55 50 51 53
301 308 299 290 284 277 270 268 269 276 283 288 290 283 268 259 255 256 264 272 270 260 253 252 253 255 252 248 248 253 259 264 268 272 278 284 283 276 273 278 278 268 272 281 269 242 232 234 242 252 258 259 257 258 271 278 261 250 261 274 262 241 241 290 324 342 360 3 352 249 15 286 163 111 74 37 26 44 54 52 50 63 69 62 57 57 57
304 304 303 304 304 299 289 278 271 273 279 287 296 302 294 266 249 252 262 264 261 257 254 253 258 262 257 248 245 250 259 267 271 273 279 288 292 288 283 283 280 269 261 264 265 250 234 234 243 255 265 267 260 254 260 272 266 260 269 276 260 235 228 252 300 330 359 12 19 175 129 110 122 113 83 56 51 58 60 55 50 56 66 67 65 61 57
301 302 303 306 308 307 303 296 288 283 283 285 290 297 297 274 239 238 259 269 262 257 255 254 258 262 260 253 250 253 260 269 275 276 273 275 284 295 306 313 310 296 273 259 254 249 242 240 246 258 268 266 254 247 258 274 271 266 273 276 255 230 224 235 262 292 352 38 94 150 137 117 119 116 101 90 90 88 80 65 41 30 50 65 63 60 57
310 316 318 316 315 316 320 320 312 302 294 289 287 290 292 276 245 247 272 281 274 269 265 259 255 254 253 255 259 262 266 271 277 279 277 273 273 280 292 304 307 307 302 285 267 255 248 246 250 258 262 257 248 250 265 275 269 264 270 274 250 228 224 230 246 256 258 111 125 140 142 137 143 144 131 119 115 112 107 92 21 353 28 58 59 59 59
323 329 330 328 325 325 326 324 320 313 303 289 284 291 300 303 284 273 276 279 282 285 280 266 256 250 247 252 261 267 272 277 283 287 288 287 282 280 284 291 295 296 297 302 297 275 251 244 248 254 254 250 250 258 268 270 262 256 262 265 246 231 227 231 239 246 239 210 170 154 150 147 149 162 158 139 123 120 123 118 10 340 352 31 37 40 45
324 326 325 321 319 321 322 319 313 308 300 292 293 300 309 314 305 292 286 287 291 292 281 258 247 243 242 251 262 268 270 273 279 286 293 303 308 302 295 292 290 288 290 303 315 305 260 242 246 249 247 248 255 261 264 261 252 244 246 252 248 242 239 240 242 243 240 228 209 187 175 168 157 152 151 143 135 143 157 160 151 331 316 314 344 2 19
318 318 316 310 304 309 318 318 310 307 307 307 309 312 309 298 294 299 302 300 299 299 266 198 240 265 260 261 268 272 269 265 265 271 280 289 303 317 318 305 291 287 297 312 316 304 274 254 251 249 248 253 259 257 249 240 231 223 226 244 254 254 254 252 248 244 240 235 225 214 207 203 198 186 169 155 151 156 165 166 165 244 315 302 295 314 40
317 320 319 315 309 313 320 316 312 316 323 323 322 318 301 289 296 311 317 305 298 315 82 124 243 269 273 274 282 292 293 282 271 270 276 281 287 303 321 321 303 297 308 315 310 294 275 263 260 259 259 260 255 241 226 218 217 220 236 261 266 264 262 258 251 243 238 235 231 227 224 223 222 219 210 200 193 188 183 184 192 211 261 275 265 255 165
327 331 336 336 333 332 331 325 321 323 328 323 314 310 303 296 311 354 1 334 317 340 12 330 275 268 271 276 285 298 307 306 296 283 277 274 276 287 306 318 311 305 312 319 315 299 276 265 266 268 265 255 240 226 218 216 220 234 270 295 294 281 270 262 254 247 241 237 234 233 233 233 233 233 231 228 223 217 215 221 227 230 239 248 246 237 232
338 342 351 355 347 344 346 344 337 334 330 317 302 299 291 282 330 37 33 22 22 28 18 345 323 303 280 274 281 293 302 313 322 319 302 283 274 275 284 296 304 305 313 324 326 314 290 279 279 275 260 246 239 231 223 221 230 262 294 307 308 295 275 261 256 252 246 241 238 237 238 240 242 240 240 241 238 232 230 233 235 233 235 242 243 239 244